Location: ????????
(55.5667°N, 37.5833°E)
Time: 10:47:30
(UTC+00:00)

Cosmos 1975 Rocket - Pass Details

Date: 14 April 2026
Orbit: 597 x 626 km, 82.5° (Epoch: 19 May)

Event Time Altitude Azimuth Distance (km) Brightness Sun altitude
Rises 20:05:16 0° 345° (NNW) 2,928 8.0 -22.4°
Reaches altitude 10° 20:07:33 10° 341° (NNW) 2,015 6.8 -22.6°
Maximum altitude 20:11:55 55° 265° (W) 759 3.5 -22.8°
Enters shadow 20:12:34 49° 231° (SW) 807 3.4 -22.8°
